User: anonymous
Location: Caltech
(34.1382°N, 118.1253°W)
Time: 22:30:06
(UTC-07:00)
Language:

Spot 4 Rocket - Orbit

View from above orbital plane
View from above orbital plane
View from above satellite
View from above satellite

Ground track
Ground track

The orbit data is extracted from the following two-line orbital elements,

1 25261U 98017B   14107.00480106  .00000509  00000-0  20194-3 0  5532
2 25261 098.4021 062.7051 0002060 284.0010 117.8179 14.32877977839252
Epoch (UTC): 17 April 2014 00:06:54
Eccentricity: 0.0002060
inclination: 98.4021°
perigee height: 780 km
apogee height: 783 km
right ascension of ascending node: 62.7051°
argument of perigee: 284.0010°
revolutions per day: 14.32877977
mean anomaly at epoch: 117.8179°
orbit number at epoch: 83925

The dashed part of the orbit path shows where the satellite is in the earth's shadow,  

DLR